Regional Weather Roundup
Issued by NWS

Home | Current Version | Previous Version | Graphics & Text | Print | Product List | Glossary On
Versions: 1 2 3 4 5 6 7 8 9 10 11 12 13 14 15 16 17 18 19 20 21 22 23 24 25 26 27 28 29 30 31 32 33 34 35 36 37 38 39 40 41 42 43 44 45 46 47 48 49 50
000
ASUS43 KTOP 241408
RWRKS

WEATHER ROUNDUP FOR KANSAS
NATIONAL WEATHER SERVICE GOODLAND KS
900 AM CDT THU APR 24 2014

NOTE:  "FAIR" INDICATES FEW OR NO CLOUDS BELOW 12,000 FEET WITH NO
SIGNIFICANT WEATHER AND/OR OBSTRUCTIONS TO VISIBILITY.

KSZ001>006-013>018-027>032-041>047-241500-
NORTHWEST KANSAS

CITY           SKY/WX    TMP DP  RH WIND       PRES   REMARKS
GOODLAND       MOSUNNY   49  28  44 NW23      29.96R
HAYS           CLOUDY    54  43  66 N18       29.80R
HILL CITY      CLOUDY    53  40  61 NW15      29.85R
$$

KSZ061>065-074>080-084>089-241500-
SOUTHWEST KANSAS

CITY           SKY/WX    TMP DP  RH WIND       PRES   REMARKS
DODGE CITY     LGT RAIN  49  42  77 N17G29    29.90R
ELKHART          N/A     48  33  56 NW15        N/A
GARDEN CITY    CLOUDY    53  32  44 NW16      29.90R
GREAT BEND     PTSUNNY   54  45  71 NW13      29.79R
LIBERAL        PTSUNNY   54  36  50 NW20      29.95R
PRATT          PTSUNNY   55  46  71 NW14      29.82R
$$

KSZ066>073-081>083-090>101-241500-
SOUTHEAST KANSAS

CITY           SKY/WX    TMP DP  RH WIND       PRES   REMARKS
CHANUTE        CLOUDY    66  60  81 SW9       29.65R
COFFEYVILLE    PTSUNNY   68  61  78 S16       29.65F
HUTCHINSON     LGT RAIN  54  48  80 N13       29.72R
MEDICINE LODGE   N/A     58  48  69 NW15G24   29.79R
NEWTON         CLOUDY    54  48  82 NW14      29.73R
PARSONS        PTSUNNY   69  60  73 S13G22    29.65F
WICHITA INTL   TSTM      57  53  86 NW24G30   29.73R
WICHITA JABRA  LGT RAIN  57  57 100 NW14      29.69R
WICHITA MCCONL TSTM      58  58 100 NW18G24   29.71R
WINFIELD       CLOUDY    61  57  87 N20       29.66R
$$

KSZ007>012-019>026-033>040-048>060-102>105-241500-
NORTHEAST KANSAS

CITY           SKY/WX    TMP DP  RH WIND       PRES   REMARKS
CONCORDIA      PTSUNNY   53  47  79 N14G23    29.71S
EMPORIA        CLOUDY    57  55  93 NE10      29.64S
LAWRENCE       CLOUDY    60  59  96 NE8       29.64F
MANHATTAN      CLOUDY    57  56  96 NW3       29.68S
OLATHE IND     LGT RAIN  59  55  87 SE10      29.66S
OLATHE EXE     LGT RAIN  56  54  93 SE8       29.65F FOG
SALINA         CLOUDY    55  48  77 NW22      29.77R
TOPEKA BILLARD CLOUDY    59  56  89 NE9       29.65F
TOPEKA FORBES  CLOUDY    58  54  86 NE10      29.63F
$$



USA.gov is the U.S. government's official web portal to all federal, state and local government web resources and services.